"read_dt","SO2 (ppb)","flags","PMT voltage (V)","lamp voltage (V)","lamp intensity (Hz)","internal temp (C)","react chamber temp (C)","sample flow (l/min)","pres (mmHg)","SO2 bkg (ppb)","SO2 coefficient"
2017-02-02 00:00:00,1789E-3,5C000000,-0724,0839,12014,029.0,045.5,0.429,725.1,01.19,0.508
2017-02-02 00:01:00,1892E-3,5C000000,-0724,0839,12049,029.0,045.5,0.429,725.0,01.19,0.508
2017-02-02 00:02:00,1868E-3,5C000000,-0724,0839,12060,029.1,045.5,0.429,725.1,01.19,0.508
2017-02-02 00:03:00,1857E-3,5C000000,-0724,0838,12006,029.1,045.5,0.429,724.8,01.19,0.508
2017-02-02 00:04:00,1720E-3,5C000000,-0724,0839,12100,029.1,045.5,0.429,725.1,01.19,0.508
2017-02-02 00:05:00,1895E-3,5C000000,-0724,0839,12061,029.1,045.5,0.429,725.1,01.19,0.508
2017-02-02 00:06:00,1794E-3,5C000000,-0724,0839,12188,029.1,045.5,0.430,725.1,01.19,0.508
2017-02-02 00:07:00,1831E-3,5C000000,-0724,0839,12131,029.1,045.5,0.429,725.1,01.19,0.508
2017-02-02 00:08:00,1793E-3,5C000000,-0724,0839,11925,029.1,045.5,0.429,725.1,01.19,0.508
2017-02-02 00:09:00,1869E-3,5C000000,-0724,0839,12150,029.1,045.5,0.429,725.2,01.19,0.508
2017-02-02 00:10:00,1796E-3,5C000000,-0724,0839,12061,029.1,045.5,0.430,725.3,01.19,0.508
2017-02-02 00:11:00,1817E-3,5C000000,-0724,0838,12112,029.1,045.5,0.429,725.3,01.19,0.508
2017-02-02 00:12:00,1856E-3,5C000000,-0724,0840,12030,029.1,045.5,0.429,725.3,01.19,0.508
2017-02-02 00:13:00,1904E-3,5C000000,-0724,0839,12051,029.1,045.5,0.430,725.3,01.19,0.508
2017-02-02 00:14:00,1908E-3,5C000000,-0724,0838,12020,029.1,045.5,0.429,725.2,01.19,0.508
2017-02-02 00:15:00,1839E-3,5C000000,-0724,0839,12018,029.1,045.5,0.429,725.2,01.19,0.508
2017-02-02 00:16:00,1880E-3,5C000000,-0724,0839,12061,029.1,045.5,0.429,725.2,01.19,0.508
2017-02-02 00:17:00,1941E-3,5C000000,-0724,0839,11994,029.1,045.5,0.429,725.2,01.19,0.508
2017-02-02 00:18:00,1787E-3,5C000000,-0724,0839,12105,029.1,045.5,0.429,725.3,01.19,0.508
2017-02-02 00:19:00,1831E-3,5C000000,-0724,0838,11971,029.1,045.5,0.429,725.3,01.19,0.508
2017-02-02 00:20:00,1881E-3,5C000000,-0724,0839,12108,029.1,045.5,0.429,725.3,01.19,0.508
2017-02-02 00:21:00,1798E-3,5C000000,-0724,0839,12016,029.2,045.5,0.429,725.4,01.19,0.508
2017-02-02 00:22:00,1929E-3,5C000000,-0724,0839,12097,029.1,045.5,0.429,725.4,01.19,0.508
2017-02-02 00:23:00,1891E-3,5C000000,-0724,0839,12015,029.2,045.5,0.429,725.4,01.19,0.508
2017-02-02 00:24:00,1758E-3,5C000000,-0724,0839,12006,029.1,045.5,0.429,725.4,01.19,0.508
2017-02-02 00:25:00,1747E-3,5C000000,-0724,0839,11965,029.1,045.5,0.429,725.4,01.19,0.508
2017-02-02 00:26:00,1913E-3,5C000000,-0724,0839,12093,029.2,045.5,0.429,725.4,01.19,0.508
2017-02-02 00:27:00,1859E-3,5C000000,-0724,0839,12043,029.2,045.5,0.429,725.4,01.19,0.508
2017-02-02 00:28:00,1875E-3,5C000000,-0724,0839,12132,029.2,045.5,0.429,725.3,01.19,0.508
2017-02-02 00:29:00,1771E-3,5C000000,-0724,0839,12065,029.2,045.5,0.429,725.2,01.19,0.508
2017-02-02 00:30:00,1751E-3,5C000000,-0724,0839,11956,029.2,045.5,0.429,725.3,01.19,0.508
2017-02-02 00:31:00,1795E-3,5C000000,-0724,0840,12111,029.2,045.5,0.429,725.3,01.19,0.508
2017-02-02 00:32:00,1733E-3,5C000000,-0724,0839,12143,029.2,045.5,0.429,725.3,01.19,0.508
2017-02-02 00:33:00,1886E-3,5C000000,-0724,0839,12010,029.2,045.5,0.429,725.4,01.19,0.508
2017-02-02 00:34:00,1703E-3,5C000000,-0724,0838,12093,029.2,045.5,0.429,725.4,01.19,0.508
2017-02-02 00:35:00,1904E-3,5C000000,-0724,0840,11976,029.2,045.5,0.429,725.4,01.19,0.508
2017-02-02 00:36:00,1980E-3,5C000000,-0724,0840,11868,029.2,045.5,0.429,725.3,01.19,0.508
2017-02-02 00:37:00,1840E-3,5C000000,-0724,0839,12050,029.2,045.5,0.428,725.2,01.19,0.508
2017-02-02 00:38:00,1790E-3,5C000000,-0724,0839,12010,029.2,045.5,0.429,725.2,01.19,0.508
2017-02-02 00:39:00,1828E-3,5C000000,-0724,0840,12063,029.2,045.5,0.429,725.1,01.19,0.508
2017-02-02 00:40:00,1864E-3,5C000000,-0724,0839,12023,029.3,045.5,0.428,724.9,01.19,0.508
2017-02-02 00:41:00,1881E-3,5C000000,-0724,0839,11978,029.3,045.5,0.429,725.2,01.19,0.508
2017-02-02 00:42:00,1954E-3,5C000000,-0724,0839,12043,029.3,045.5,0.429,725.2,01.19,0.508
2017-02-02 00:43:00,1933E-3,5C000000,-0724,0839,12119,029.3,045.5,0.429,725.4,01.19,0.508
2017-02-02 00:44:00,1912E-3,5C000000,-0724,0839,12154,029.3,045.5,0.429,725.5,01.19,0.508
2017-02-02 00:45:00,1948E-3,5C000000,-0724,0839,12046,029.3,045.5,0.429,725.5,01.19,0.508
2017-02-02 00:46:00,1722E-3,5C000000,-0724,0840,11991,029.3,045.5,0.429,725.4,01.19,0.508
2017-02-02 00:47:00,1829E-3,5C000000,-0724,0839,12112,029.3,045.5,0.429,725.5,01.19,0.508
2017-02-02 00:48:00,1802E-3,5C000000,-0724,0839,12077,029.3,045.5,0.429,725.6,01.19,0.508
2017-02-02 00:49:00,1873E-3,5C000000,-0724,0839,12053,029.3,045.5,0.429,725.6,01.19,0.508
2017-02-02 00:50:00,1843E-3,5C000000,-0724,0839,12046,029.3,045.5,0.429,725.5,01.19,0.508
2017-02-02 00:51:00,1905E-3,5C000000,-0724,0839,11978,029.3,045.5,0.429,725.6,01.19,0.508
2017-02-02 00:52:00,1871E-3,5C000000,-0724,0839,12039,029.3,045.5,0.429,725.6,01.19,0.508
2017-02-02 00:53:00,1912E-3,5C000000,-0724,0839,12043,029.3,045.5,0.429,725.6,01.19,0.508
2017-02-02 00:54:00,1885E-3,5C000000,-0724,0839,12027,029.3,045.5,0.429,725.6,01.19,0.508
2017-02-02 00:55:00,1821E-3,5C000000,-0724,0839,12073,029.3,045.5,0.429,725.7,01.19,0.508
2017-02-02 00:56:00,1797E-3,5C000000,-0724,0840,12065,029.3,045.5,0.429,725.7,01.19,0.508
2017-02-02 00:57:00,1768E-3,5C000000,-0724,0839,12060,029.3,045.5,0.429,725.7,01.19,0.508
2017-02-02 00:58:00,1833E-3,5C000000,-0724,0838,12122,029.3,045.5,0.428,725.6,01.19,0.508
2017-02-02 00:59:00,1833E-3,5C000000,-0724,0839,12100,029.3,045.5,0.429,725.7,01.19,0.508
2017-02-02 01:00:00,1880E-3,5C000000,-0724,0838,11897,029.3,045.5,0.429,725.7,01.19,0.508
2017-02-02 01:01:00,1884E-3,5C000000,-0724,0838,11934,029.3,045.5,0.429,725.7,01.19,0.508
2017-02-02 01:02:00,1832E-3,5C000000,-0724,0839,12067,029.3,045.5,0.429,725.6,01.19,0.508
2017-02-02 01:03:00,1810E-3,5C000000,-0724,0839,12020,029.3,045.5,0.428,725.7,01.19,0.508
2017-02-02 01:04:00,1921E-3,5C000000,-0724,0839,12113,029.3,045.5,0.429,725.6,01.19,0.508
2017-02-02 01:05:00,1913E-3,5C000000,-0724,0838,11929,029.3,045.5,0.429,725.6,01.19,0.508
2017-02-02 01:06:00,1731E-3,5C000000,-0724,0838,12130,029.4,045.5,0.429,725.7,01.19,0.508
2017-02-02 01:07:00,1740E-3,5C000000,-0724,0839,12076,029.4,045.5,0.429,725.7,01.19,0.508
2017-02-02 01:08:00,1855E-3,5C000000,-0724,0839,11992,029.4,045.5,0.429,725.7,01.19,0.508
2017-02-02 01:09:00,1942E-3,5C000000,-0724,0838,11997,029.4,045.5,0.429,725.7,01.19,0.508
2017-02-02 01:10:00,1858E-3,5C000000,-0724,0839,12002,029.4,045.5,0.429,725.7,01.19,0.508
2017-02-02 01:11:00,1823E-3,5C000000,-0724,0838,12161,029.4,045.5,0.429,725.6,01.19,0.508
2017-02-02 01:12:00,1821E-3,5C000000,-0724,0839,12029,029.3,045.5,0.429,725.5,01.19,0.508
2017-02-02 01:13:00,1775E-3,5C000000,-0724,0840,12152,029.3,045.5,0.428,725.5,01.19,0.508
2017-02-02 01:14:00,1831E-3,5C000000,-0724,0839,12156,029.4,045.5,0.429,725.5,01.19,0.508
2017-02-02 01:15:00,1789E-3,5C000000,-0724,0839,12026,029.4,045.5,0.429,725.5,01.19,0.508
2017-02-02 01:16:00,1810E-3,5C000000,-0724,0840,12054,029.4,045.5,0.429,725.5,01.19,0.508
2017-02-02 01:17:00,1903E-3,5C000000,-0724,0839,12170,029.4,045.5,0.429,725.5,01.19,0.508
2017-02-02 01:18:00,1916E-3,5C000000,-0724,0839,12141,029.4,045.5,0.429,725.6,01.19,0.508
2017-02-02 01:19:00,1700E-3,5C000000,-0724,0839,12160,029.4,045.5,0.429,725.6,01.19,0.508
2017-02-02 01:20:00,1745E-3,5C000000,-0724,0839,11937,029.4,045.5,0.428,725.6,01.19,0.508
2017-02-02 01:21:00,1901E-3,5C000000,-0724,0839,12209,029.4,045.5,0.429,725.7,01.19,0.508
2017-02-02 01:22:00,1847E-3,5C000000,-0724,0839,12039,029.4,045.5,0.429,725.7,01.19,0.508
2017-02-02 01:23:00,1877E-3,5C000000,-0724,0839,12071,029.4,045.5,0.429,725.7,01.19,0.508
2017-02-02 01:24:00,1857E-3,5C000000,-0724,0839,11915,029.4,045.5,0.429,725.7,01.19,0.508
2017-02-02 01:25:00,1879E-3,5C000000,-0724,0840,12130,029.4,045.5,0.428,725.7,01.19,0.508
2017-02-02 01:26:00,1788E-3,5C000000,-0724,0839,12123,029.4,045.5,0.429,725.8,01.19,0.508
2017-02-02 01:27:00,1837E-3,5C000000,-0724,0839,12005,029.4,045.5,0.428,725.7,01.19,0.508
2017-02-02 01:28:00,1864E-3,5C000000,-0724,0839,11988,029.4,045.5,0.429,725.7,01.19,0.508
2017-02-02 01:29:00,1876E-3,5C000000,-0724,0839,11871,029.4,045.5,0.429,725.8,01.19,0.508
2017-02-02 01:30:00,1874E-3,5C000000,-0724,0839,12151,029.4,045.5,0.429,725.7,01.19,0.508
2017-02-02 01:31:00,1883E-3,5C000000,-0724,0838,12170,029.4,045.5,0.429,725.8,01.19,0.508
2017-02-02 01:32:00,1783E-3,5C000000,-0724,0839,12070,029.4,045.5,0.428,725.8,01.19,0.508
2017-02-02 01:33:00,1855E-3,5C000000,-0724,0840,12094,029.4,045.5,0.429,725.8,01.19,0.508
2017-02-02 01:34:00,1701E-3,5C000000,-0724,0838,11992,029.4,045.5,0.428,725.7,01.19,0.508
2017-02-02 01:35:00,1877E-3,5C000000,-0724,0839,12123,029.4,045.5,0.429,725.7,01.19,0.508
2017-02-02 01:36:00,1805E-3,5C000000,-0724,0838,12005,029.4,045.5,0.428,725.7,01.19,0.508
2017-02-02 01:37:00,1913E-3,5C000000,-0724,0839,12040,029.4,045.5,0.429,725.6,01.19,0.508
2017-02-02 01:38:00,1807E-3,5C000000,-0724,0839,12080,029.4,045.5,0.429,725.5,01.19,0.508
2017-02-02 01:39:00,1933E-3,5C000000,-0724,0839,11881,029.5,045.5,0.429,725.5,01.19,0.508
2017-02-02 01:40:00,1883E-3,5C000000,-0724,0839,12121,029.4,045.5,0.429,725.5,01.19,0.508
2017-02-02 01:41:00,1915E-3,5C000000,-0724,0838,11989,029.5,045.5,0.428,725.5,01.19,0.508
2017-02-02 01:42:00,1874E-3,5C000000,-0724,0839,12060,029.4,045.5,0.429,725.4,01.19,0.508
2017-02-02 01:43:00,1940E-3,5C000000,-0724,0839,12155,029.5,045.5,0.428,725.5,01.19,0.508
2017-02-02 01:44:00,1856E-3,5C000000,-0724,0839,12040,029.4,045.5,0.429,725.6,01.19,0.508
2017-02-02 01:45:00,1847E-3,5C000000,-0724,0839,12129,029.4,045.5,0.428,725.6,01.19,0.508
2017-02-02 01:46:00,1852E-3,5C000000,-0724,0839,11978,029.5,045.5,0.429,725.6,01.19,0.508
2017-02-02 01:47:00,1700E-3,5C000000,-0724,0839,12064,029.5,045.5,0.428,725.6,01.19,0.508
2017-02-02 01:48:00,1757E-3,5C000000,-0724,0839,11963,029.5,045.5,0.429,725.7,01.19,0.508
2017-02-02 01:49:00,1844E-3,5C000000,-0724,0840,12038,029.5,045.5,0.429,725.6,01.19,0.508
2017-02-02 01:50:00,1658E-3,5C000000,-0724,0839,12131,029.5,045.5,0.428,725.6,01.19,0.508
2017-02-02 01:51:00,1753E-3,5C000000,-0724,0839,12112,029.5,045.5,0.429,725.7,01.19,0.508
2017-02-02 01:52:00,1932E-3,5C000000,-0724,0840,12032,029.5,045.5,0.428,725.6,01.19,0.508
2017-02-02 01:53:00,1887E-3,5C000000,-0724,0840,12134,029.5,045.5,0.429,725.6,01.19,0.508
2017-02-02 01:54:00,1894E-3,5C000000,-0724,0839,12057,029.5,045.5,0.428,725.7,01.19,0.508
2017-02-02 01:55:00,1734E-3,5C000000,-0724,0839,12111,029.5,045.5,0.429,725.7,01.19,0.508
2017-02-02 01:56:00,1839E-3,5C000000,-0724,0839,12068,029.5,045.5,0.428,725.7,01.19,0.508
2017-02-02 01:57:00,1842E-3,5C000000,-0724,0839,12020,029.5,045.5,0.429,725.8,01.19,0.508
2017-02-02 01:58:00,1823E-3,5C000000,-0724,0840,11983,029.5,045.5,0.429,725.8,01.19,0.508
2017-02-02 01:59:00,1914E-3,5C000000,-0724,0839,11976,029.5,045.5,0.428,725.8,01.19,0.508
2017-02-02 02:00:00,1792E-3,5C000000,-0724,0839,12006,029.4,045.5,0.429,725.9,01.19,0.508
2017-02-02 02:01:00,1872E-3,5C000000,-0724,0839,12056,029.4,045.5,0.429,725.9,01.19,0.508
2017-02-02 02:02:00,1810E-3,5C000000,-0724,0839,12037,029.3,045.5,0.428,725.9,01.19,0.508
2017-02-02 02:03:00,1721E-3,5C000000,-0724,0839,11974,029.3,045.5,0.428,725.9,01.19,0.508
2017-02-02 02:04:00,1902E-3,5C000000,-0724,0839,12198,029.2,045.5,0.429,725.9,01.19,0.508
2017-02-02 02:05:00,1859E-3,5C000000,-0724,0838,12085,029.2,045.5,0.429,725.9,01.19,0.508
2017-02-02 02:06:00,1937E-3,5C000000,-0724,0839,11990,029.1,045.5,0.428,725.9,01.19,0.508
2017-02-02 02:07:00,1844E-3,5C000000,-0724,0839,12129,029.1,045.5,0.429,725.9,01.19,0.508
2017-02-02 02:08:00,1876E-3,5C000000,-0724,0840,12024,029.0,045.5,0.428,725.9,01.19,0.508
2017-02-02 02:09:00,1908E-3,5C000000,-0724,0839,12144,029.0,045.5,0.428,725.9,01.19,0.508
2017-02-02 02:10:00,1687E-3,5C000000,-0724,0839,12091,029.0,045.5,0.429,725.9,01.19,0.508
2017-02-02 02:11:00,1856E-3,5C000000,-0724,0840,12181,029.0,045.5,0.428,725.9,01.19,0.508
2017-02-02 02:12:00,1720E-3,5C000000,-0724,0839,12082,029.1,045.5,0.429,725.9,01.19,0.508
2017-02-02 02:13:00,1739E-3,5C000000,-0724,0839,12027,029.1,045.5,0.429,725.9,01.19,0.508
2017-02-02 02:14:00,1776E-3,5C000000,-0724,0839,12105,029.1,045.5,0.428,725.9,01.19,0.508
2017-02-02 02:15:00,1886E-3,5C000000,-0724,0840,12017,029.1,045.5,0.429,725.8,01.19,0.508
2017-02-02 02:16:00,1814E-3,5C000000,-0724,0839,11936,029.1,045.5,0.429,725.8,01.19,0.508
2017-02-02 02:17:00,1859E-3,5C000000,-0724,0839,12070,029.1,045.5,0.429,725.8,01.19,0.508
2017-02-02 02:18:00,1807E-3,5C000000,-0724,0840,12158,029.1,045.5,0.429,725.7,01.19,0.508
2017-02-02 02:19:00,2006E-3,5C000000,-0724,0838,12230,029.2,045.5,0.429,725.6,01.19,0.508
2017-02-02 02:20:00,1802E-3,5C000000,-0724,0839,12027,029.2,045.5,0.429,725.8,01.19,0.508
2017-02-02 02:21:00,1763E-3,5C000000,-0724,0839,12158,029.2,045.5,0.429,725.7,01.19,0.508
2017-02-02 02:22:00,1879E-3,5C000000,-0724,0839,12113,029.2,045.5,0.429,725.8,01.19,0.508
2017-02-02 02:23:00,1857E-3,5C000000,-0724,0839,12090,029.2,045.5,0.429,725.7,01.19,0.508
2017-02-02 02:24:00,1912E-3,5C000000,-0724,0838,12083,029.2,045.5,0.429,725.9,01.19,0.508
2017-02-02 02:25:00,1880E-3,5C000000,-0724,0838,11910,029.2,045.5,0.429,725.8,01.19,0.508
2017-02-02 02:26:00,1704E-3,5C000000,-0724,0839,12101,029.3,045.5,0.429,725.8,01.19,0.508
2017-02-02 02:27:00,1898E-3,5C000000,-0724,0838,12085,029.3,045.5,0.429,725.9,01.19,0.508
2017-02-02 02:28:00,1709E-3,5C000000,-0724,0839,12018,029.3,045.5,0.429,725.9,01.19,0.508
2017-02-02 02:29:00,1871E-3,5C000000,-0724,0839,12043,029.3,045.5,0.429,725.9,01.19,0.508
2017-02-02 02:30:00,1726E-3,5C000000,-0724,0839,11927,029.3,045.5,0.429,725.9,01.19,0.508
2017-02-02 02:31:00,1833E-3,5C000000,-0724,0839,12035,029.3,045.5,0.428,725.9,01.19,0.508
2017-02-02 02:32:00,1838E-3,5C000000,-0724,0839,11989,029.3,045.5,0.429,726.0,01.19,0.508
2017-02-02 02:33:00,1882E-3,5C000000,-0724,0839,12108,029.3,045.5,0.429,726.0,01.19,0.508
2017-02-02 02:34:00,1913E-3,5C000000,-0724,0838,12064,029.3,045.5,0.429,726.1,01.19,0.508
2017-02-02 02:35:00,1790E-3,5C000000,-0724,0839,11918,029.3,045.5,0.429,726.0,01.19,0.508
2017-02-02 02:36:00,1653E-3,5C000000,-0724,0839,12092,029.4,045.5,0.429,725.9,01.19,0.508
2017-02-02 02:37:00,1831E-3,5C000000,-0724,0839,12136,029.4,045.5,0.429,726.0,01.19,0.508
2017-02-02 02:38:00,1865E-3,5C000000,-0724,0839,12029,029.4,045.5,0.429,726.1,01.19,0.508
2017-02-02 02:39:00,1852E-3,5C000000,-0724,0839,12025,029.4,045.5,0.429,726.1,01.19,0.508
2017-02-02 02:40:00,1904E-3,5C000000,-0724,0839,11864,029.4,045.5,0.429,726.1,01.19,0.508
2017-02-02 02:41:00,1810E-3,5C000000,-0724,0839,12076,029.4,045.5,0.429,726.0,01.19,0.508
2017-02-02 02:42:00,1863E-3,5C000000,-0724,0839,11973,029.4,045.5,0.429,726.1,01.19,0.508
2017-02-02 02:43:00,1882E-3,5C000000,-0724,0839,11956,029.4,045.5,0.429,726.1,01.19,0.508
2017-02-02 02:44:00,1746E-3,5C000000,-0724,0839,11948,029.4,045.5,0.429,726.1,01.19,0.508
2017-02-02 02:45:00,1864E-3,5C000000,-0724,0839,12049,029.4,045.5,0.429,726.2,01.19,0.508
2017-02-02 02:46:00,1835E-3,5C000000,-0724,0840,12110,029.4,045.5,0.429,726.2,01.19,0.508
2017-02-02 02:47:00,1746E-3,5C000000,-0724,0839,12016,029.4,045.5,0.429,726.2,01.19,0.508
2017-02-02 02:48:00,1844E-3,5C000000,-0724,0838,12063,029.3,045.5,0.429,726.2,01.19,0.508
2017-02-02 02:49:00,1816E-3,5C000000,-0724,0839,12065,029.3,045.5,0.428,726.3,01.19,0.508
2017-02-02 02:50:00,1774E-3,5C000000,-0724,0839,12028,029.3,045.5,0.429,726.3,01.19,0.508
2017-02-02 02:51:00,1833E-3,5C000000,-0724,0839,11978,029.2,045.5,0.429,726.3,01.19,0.508
2017-02-02 02:52:00,1773E-3,5C000000,-0724,0839,12070,029.2,045.5,0.428,726.4,01.19,0.508
2017-02-02 02:53:00,1675E-3,5C000000,-0724,0839,12118,029.1,045.5,0.429,726.4,01.19,0.508
2017-02-02 02:54:00,1738E-3,5C000000,-0724,0839,12022,029.1,045.5,0.428,726.3,01.19,0.508
2017-02-02 02:55:00,1903E-3,5C000000,-0724,0838,12028,029.1,045.5,0.428,726.4,01.19,0.508
2017-02-02 02:56:00,1647E-3,5C000000,-0724,0839,12083,029.1,045.5,0.429,726.4,01.19,0.508
2017-02-02 02:57:00,1781E-3,5C000000,-0724,0839,12013,029.1,045.5,0.429,726.4,01.19,0.508
2017-02-02 02:58:00,1903E-3,5C000000,-0724,0838,11885,029.1,045.5,0.429,726.4,01.19,0.508
2017-02-02 02:59:00,1955E-3,5C000000,-0724,0838,11784,029.1,045.5,0.429,726.3,01.19,0.508
2017-02-02 03:00:00,1857E-3,5C000000,-0724,0839,12154,029.2,045.5,0.428,726.3,01.19,0.508
2017-02-02 03:01:00,1898E-3,5C000000,-0724,0839,12047,029.2,045.5,0.429,726.3,01.19,0.508
2017-02-02 03:02:00,1868E-3,5C000000,-0724,0839,11874,029.2,045.5,0.429,726.3,01.19,0.508
2017-02-02 03:03:00,1752E-3,5C000000,-0724,0839,12052,029.2,045.5,0.429,726.4,01.19,0.508
2017-02-02 03:04:00,1850E-3,5C000000,-0724,0839,12083,029.2,045.5,0.429,726.4,01.19,0.508
2017-02-02 03:05:00,1899E-3,5C000000,-0724,0840,12076,029.2,045.5,0.429,726.4,01.19,0.508
2017-02-02 03:06:00,1889E-3,5C000000,-0724,0839,11986,029.1,045.5,0.429,726.4,01.19,0.508
2017-02-02 03:07:00,1857E-3,5C000000,-0724,0839,12077,029.1,045.5,0.429,726.4,01.19,0.508
2017-02-02 03:08:00,1864E-3,5C000000,-0724,0839,12095,029.1,045.5,0.428,726.4,01.19,0.508
2017-02-02 03:09:00,1814E-3,5C000000,-0724,0839,12068,029.1,045.5,0.429,726.5,01.19,0.508
2017-02-02 03:10:00,1726E-3,5C000000,-0724,0839,12027,029.1,045.5,0.428,726.5,01.19,0.508
2017-02-02 03:11:00,1898E-3,5C000000,-0724,0839,12073,029.1,045.5,0.429,726.5,01.19,0.508
2017-02-02 03:12:00,1946E-3,5C000000,-0724,0840,12006,029.1,045.5,0.429,726.5,01.19,0.508
2017-02-02 03:13:00,1850E-3,5C000000,-0724,0838,11988,029.1,045.5,0.428,726.5,01.19,0.508
2017-02-02 03:14:00,1916E-3,5C000000,-0724,0839,12060,029.1,045.5,0.429,726.5,01.19,0.508
2017-02-02 03:15:00,1948E-3,5C000000,-0724,0839,12072,029.1,045.5,0.429,726.4,01.19,0.508
2017-02-02 03:16:00,1853E-3,5C000000,-0724,0839,12043,029.1,045.5,0.428,726.4,01.19,0.508
2017-02-02 03:17:00,1831E-3,5C000000,-0724,0839,12020,029.0,045.5,0.429,726.5,01.19,0.508
2017-02-02 03:18:00,1831E-3,5C000000,-0724,0839,11985,029.1,045.5,0.429,726.4,01.19,0.508
2017-02-02 03:19:00,1811E-3,5C000000,-0724,0839,12080,029.1,045.5,0.428,726.4,01.19,0.508
2017-02-02 03:20:00,1726E-3,5C000000,-0724,0839,12019,029.1,045.5,0.429,726.4,01.19,0.508
2017-02-02 03:21:00,1974E-3,5C000000,-0724,0839,12141,029.1,045.5,0.429,726.4,01.19,0.508
2017-02-02 03:22:00,1846E-3,5C000000,-0724,0839,12067,029.1,045.5,0.428,726.5,01.19,0.508
2017-02-02 03:23:00,1776E-3,5C000000,-0724,0839,12129,029.1,045.5,0.429,726.4,01.19,0.508
2017-02-02 03:24:00,1915E-3,5C000000,-0724,0838,11968,029.1,045.5,0.429,726.5,01.19,0.508
2017-02-02 03:25:00,1830E-3,5C000000,-0724,0839,12038,029.0,045.5,0.428,726.5,01.19,0.508
2017-02-02 03:26:00,1806E-3,5C000000,-0724,0839,12061,029.1,045.5,0.429,726.5,01.19,0.508
2017-02-02 03:27:00,1801E-3,5C000000,-0724,0839,12158,029.0,045.5,0.429,726.6,01.19,0.508
2017-02-02 03:28:00,1908E-3,5C000000,-0724,0839,12106,029.0,045.5,0.429,726.6,01.19,0.508
2017-02-02 03:29:00,1897E-3,5C000000,-0724,0839,12116,029.0,045.5,0.429,726.6,01.19,0.508
2017-02-02 03:30:00,1902E-3,5C000000,-0724,0839,12155,029.0,045.5,0.429,726.7,01.19,0.508
2017-02-02 03:31:00,1942E-3,5C000000,-0724,0839,12055,029.0,045.5,0.429,726.7,01.19,0.508
2017-02-02 03:32:00,1799E-3,5C000000,-0724,0840,11940,029.0,045.5,0.429,726.7,01.19,0.508
2017-02-02 03:33:00,1746E-3,5C000000,-0724,0839,12168,029.0,045.5,0.429,726.7,01.19,0.508
2017-02-02 03:34:00,1787E-3,5C000000,-0724,0839,12020,029.1,045.5,0.429,726.7,01.19,0.508
2017-02-02 03:35:00,1869E-3,5C000000,-0724,0839,12032,029.1,045.5,0.429,726.7,01.19,0.508
2017-02-02 03:36:00,1835E-3,5C000000,-0724,0839,12027,029.1,045.5,0.429,726.7,01.19,0.508
2017-02-02 03:37:00,1785E-3,5C000000,-0724,0839,12074,029.1,045.5,0.429,726.7,01.19,0.508
2017-02-02 03:38:00,1701E-3,5C000000,-0724,0839,12011,029.1,045.5,0.430,726.7,01.19,0.508
2017-02-02 03:39:00,1932E-3,5C000000,-0724,0839,12076,029.1,045.5,0.429,726.6,01.19,0.508
2017-02-02 03:40:00,1832E-3,5C000000,-0724,0839,11991,029.2,045.5,0.429,726.7,01.19,0.508
2017-02-02 03:41:00,1909E-3,5C000000,-0724,0839,11932,029.2,045.5,0.429,726.6,01.19,0.508
2017-02-02 03:42:00,1807E-3,5C000000,-0724,0839,12092,029.1,045.5,0.429,726.7,01.19,0.508
2017-02-02 03:43:00,1789E-3,5C000000,-0724,0839,11971,029.2,045.5,0.429,726.7,01.19,0.508
2017-02-02 03:44:00,1789E-3,5C000000,-0724,0839,12086,029.1,045.5,0.429,726.7,01.19,0.508
2017-02-02 03:45:00,1831E-3,5C000000,-0724,0839,11960,029.1,045.5,0.429,726.7,01.19,0.508
2017-02-02 03:46:00,1936E-3,5C000000,-0724,0839,12076,029.1,045.5,0.429,726.8,01.19,0.508
2017-02-02 03:47:00,1740E-3,5C000000,-0724,0839,12110,029.1,045.5,0.429,726.8,01.19,0.508
2017-02-02 03:48:00,1861E-3,5C000000,-0724,0839,12080,029.1,045.5,0.429,726.8,01.19,0.508
2017-02-02 03:49:00,1728E-3,5C000000,-0724,0839,12066,029.1,045.5,0.428,726.8,01.19,0.508
2017-02-02 03:50:00,1773E-3,5C000000,-0724,0839,12100,029.0,045.5,0.429,726.8,01.19,0.508
2017-02-02 03:51:00,1683E-3,5C000000,-0724,0838,12129,029.0,045.5,0.429,726.8,01.19,0.508
2017-02-02 03:52:00,1820E-3,5C000000,-0724,0839,12049,029.0,045.5,0.429,726.7,01.19,0.508
2017-02-02 03:53:00,1799E-3,5C000000,-0724,0839,12042,029.0,045.5,0.429,726.8,01.19,0.508
2017-02-02 03:54:00,1858E-3,5C000000,-0724,0839,12007,029.0,045.4,0.428,726.7,01.19,0.508
2017-02-02 03:55:00,1830E-3,5C000000,-0724,0839,12044,029.0,045.5,0.428,726.8,01.19,0.508
2017-02-02 03:56:00,1808E-3,5C000000,-0724,0840,11991,029.1,045.5,0.429,726.8,01.19,0.508
2017-02-02 03:57:00,1852E-3,5C000000,-0724,0839,12063,029.1,045.5,0.429,726.9,01.19,0.508
2017-02-02 03:58:00,1871E-3,5C000000,-0724,0838,12047,029.1,045.5,0.429,726.9,01.19,0.508
2017-02-02 03:59:00,1853E-3,5C000000,-0724,0839,12145,029.1,045.5,0.429,726.9,01.19,0.508
2017-02-02 04:00:00,1937E-3,5C000000,-0724,0839,12160,029.1,045.5,0.429,726.9,01.19,0.508
2017-02-02 04:01:00,1845E-3,5C000000,-0724,0839,12126,029.2,045.5,0.429,726.9,01.19,0.508
2017-02-02 04:02:00,1995E-3,5C000000,-0724,0839,12146,029.2,045.5,0.429,726.9,01.19,0.508
2017-02-02 04:03:00,1906E-3,5C000000,-0724,0839,12147,029.2,045.5,0.430,726.9,01.19,0.508
2017-02-02 04:04:00,1816E-3,5C000000,-0724,0840,11904,029.2,045.5,0.429,726.9,01.19,0.508
2017-02-02 04:05:00,1801E-3,5C000000,-0724,0840,11992,029.1,045.5,0.429,726.9,01.19,0.508
2017-02-02 04:06:00,1799E-3,5C000000,-0724,0839,12056,029.2,045.5,0.429,727.0,01.19,0.508
2017-02-02 04:07:00,2050E-3,5C000000,-0724,0839,11809,029.1,045.5,0.429,727.0,01.19,0.508
2017-02-02 04:08:00,1931E-3,5C000000,-0724,0839,12024,029.1,045.5,0.429,727.0,01.19,0.508
2017-02-02 04:09:00,1802E-3,5C000000,-0724,0840,12093,029.1,045.5,0.429,726.9,01.19,0.508
2017-02-02 04:10:00,1726E-3,5C000000,-0724,0839,12066,029.1,045.5,0.429,726.8,01.19,0.508
2017-02-02 04:11:00,1811E-3,5C000000,-0724,0839,12000,029.1,045.5,0.429,726.9,01.19,0.508
2017-02-02 04:12:00,1866E-3,5C000000,-0724,0838,12085,029.0,045.5,0.429,726.9,01.19,0.508
2017-02-02 04:13:00,1871E-3,5C000000,-0724,0839,12098,029.0,045.5,0.429,726.8,01.19,0.508
2017-02-02 04:14:00,1880E-3,5C000000,-0724,0839,12183,029.0,045.5,0.428,726.8,01.19,0.508
2017-02-02 04:15:00,1983E-3,5C000000,-0724,0839,11985,029.0,045.5,0.429,726.8,01.19,0.508
2017-02-02 04:16:00,1901E-3,5C000000,-0724,0840,12064,029.0,045.5,0.429,726.8,01.19,0.508
2017-02-02 04:17:00,1806E-3,5C000000,-0724,0840,11984,029.0,045.5,0.429,726.9,01.19,0.508
2017-02-02 04:18:00,1878E-3,5C000000,-0724,0839,12034,029.0,045.5,0.429,726.9,01.19,0.508
2017-02-02 04:19:00,1784E-3,5C000000,-0724,0838,12084,029.0,045.5,0.429,726.9,01.19,0.508
2017-02-02 04:20:00,1774E-3,5C000000,-0724,0839,12062,028.9,045.5,0.429,726.9,01.19,0.508